SCP
0 0 0 0 0 0 0 0 0 0 0 0 0 0 0 0 0 0 0 0 0 0 0 0 0 0 0 0 0 0 0 0 0 0 0 0 0 0 0 0 0 0 0
0 0 0 0 0 0 0 0 0 0 0 0 0 0 0 0 0 0 0 0 0 0 0 0 0 0 0 0 0 0 0 0 0 0 0 0 0 0 0 0 0 0 0
0 0 0 0 0 0 0 0 0 0 0 0 0 0 0 0 0 0 0 0 0 0 0 0 0 0 0 0 0 0 0 0 0 0 0 0 0 0 0 0 0 0 0
0 0 0 0 0 0 0 0 0 0 0 0 0 0 0 0 0 0 0 0 0 0 0 0 0 0 0 0 0 0 0 0 0 0 0 0 0 0 0 0 0 0 0
0 0 0 0 0 0 0 0 0 0 0 0 0 0 0 0 0 0 0 0 0 0 0 0 0 0 0 0 0 0 0 0 0 0 0 0 0 0 0 0 0 0 0
0 0 0 0 0 0 0 0 0 0 0 0 0 0 0 0 0 0 0 0 0 0 0 0 0 0 0 0 0 0 0 0 0 0 0 0 0 0 0 0 0 0 0
0 0 0 0 0 0 0 0 0 0 0 0 0 0 0 0 0 0 0 0 0 0 0 0 0 0 0 0 0 0 0 0 0 0 0 0 0 0 0 0 0 0 0
0 0 0 0 0 0 0 0 0 0 0 0 0 0 0 0 0 0 0 0 0 0 0 0 0 0 0 0 0 0 0 0 0 0 0 0 0 0 0 0 0 0 0
0 0 0 0 0 0 0 0 0 0 0 0 0 0 0 0 0 0 0 0 0 0 0 0 0 0 0 0 0 0 0 0 0 0 0 0 0 0 0 0 0 0 0
0 0 0 0 0 0 0 0 0 0 0 0 0 0 0 0 0 0 0 0 0 0 0 0 0 0 0 0 0 0 0 0 0 0 0 0 0 0 0 0 0 0 0
0 0 0 0 0 0 0 0 0 0 0 0 0 0 0 0 0 0 0 0 0 0 0 0 0 0 0 0 0 0 0 0 0 0 0 0 0 0 0 0 0 0 0
0 0 0 0 0 0 0 0 0 0 0 0 0 0 0 0 0 0 0 0 0 0 0 0 0 0 0 0 0 0 0 0 0 0 0 0 0 0 0 0 0 0 0
0 0 0 0 0 0 0 0 0 0 0 0 0 0 0 0 0 0 0 0 0 0 0 0 0 0 0 0 0 0 0 0 0 0 0 0 0 0 0 0 0 0 0
0 0 0 0 0 0 0 0 0 0 0 0 0 0 0 0 0 0 0 0 0 0 0 0 0 0 0 0 0 0 0 0 0 0 0 0 0 0 0 0 0 0 0
0 0 0 0 0 0 0 0 0 0 0 0 0 0 0 0 0 0 0 0 0 0 0 0 0 0 0 0 0 0 0 0 0 0 0 0 0 0 0 0 0 0 0
0 0 0 0 0 0 0 0 0 0 0 0 0 0 0 0 0 0 0 0 0 0 0 0 0 0 0 0 0 0 0 0 0 0 0 0 0 0 0 0 0 0 0
0 0 0 0 0 0 0 0 0 0 0 0 0 0 0 0 0 0 0 0 0 0 0 0 0 0 0 0 0 0 0 0 0 0 0 0 0 0 0 0 0 0 0
0 0 0 0 0 0 0 0 0 0 0 0 0 0 0 0 0 0 0 0 0 0 0 0 0 0 0 0 0 0 0 0 0 0 0 0 0 0 0 0 0 0 0
0 0 0 0 0 0 0 0 0 0 0 0 0 0 0 0 0 0 0 0 0 0 0 0 0 0 0 0 0 0 0 0 0 0 0 0 0 0 0 0 0 0 0
0 0 0 0 0 0 0 0 0 0 0 0 0 0 0 0 0 0 0 0 0 0 0 0 0 0 0 0 0 0 0 0 0 0 0 0 0 0 0 0 0 0 0
0 0 0 0 0 0 0 0 0 0 0 0 0 0 0 0 0 0 0 0 0 0 0 0 0 0 0 0 0 0 0 0 0 0 0 0 0 0 0 0 0 0 0
0 0 0 0 0 0 0 0 0 0 0 0 0 0 0 0 0 0 0 0 0 0 0 0 0 0 0 0 0 0 0 0 0 0 0 0 0 0 0 0 0 0 0
0 0 0 0 0 0 0 0 0 0 0 0 0 0 0 0 0 0 0 0 0 0 0 0 0 0 0 0 0 0 0 0 0 0 0 0 0 0 0 0 0 0 0
0 0 0 0 0 0 0 0 0 0 0 0 0 0 0 0 0 0 0 0 0 0 0 0 0 0 0 0 0 0 0 0 0 0 0 0 0 0 0 0 0 0 0
0 0 0 0 0 0 0 0 0 0 0 0 0 0 0 0 0 0 0 0 0 0 0 0 0 0 0 0 0 0 0 0 0 0 0 0 0 0 0 0 0 0 0
0 0 0 0 0 0 0 0 0 0 0 0 0 0 0 0 0 0 0 0 0 0 0 0 0 0 0 0 0 0 0 0 0 0 0 0 0 0 0 0 0 0 0
Wind_Speed
16 16 15 15 15 14 13 14 13 12 12 12 13 12 12 12 12 11 10 10 10 9 8 9 9 7 6 5 5 5 6 6 8 7 5 6 7 8 7 8 8 9 9
14 14 14 14 14 14 13 13 12 12 12 12 11 12 12 11 11 12 11 10 10 10 9 9 9 6 8 6 5 6 6 7 7 10 7 6 8 8 8 9 7 7 8
13 13 13 13 13 13 13 12 11 11 11 11 11 11 11 11 11 11 11 10 10 10 9 9 8 8 8 6 7 6 5 5 6 7 8 6 6 6 8 8 9 8 8
12 13 13 13 13 12 12 11 11 11 10 10 10 10 10 10 9 9 9 9 8 8 7 7 7 8 8 7 6 6 5 6 6 6 7 6 6 6 6 7 8 7 7
12 12 12 11 11 11 11 10 10 10 9 9 9 9 9 8 8 8 8 8 7 7 6 6 6 6 6 6 4 5 5 5 5 6 6 6 6 6 6 6 8 8 9
12 11 11 11 11 11 10 10 10 9 9 9 9 9 9 6 8 10 8 7 7 7 6 5 5 5 7 8 9 8 8 7 6 6 6 7 9 8 7 7 7 8 8
11 11 11 11 11 11 10 10 10 10 9 9 8 8 8 7 10 11 10 7 7 6 6 5 4 4 6 5 7 9 9 10 9 7 7 8 8 7 8 8 8 8 9
11 11 11 11 11 11 11 10 10 9 8 8 8 8 7 7 10 10 10 7 5 5 5 5 5 4 4 4 4 5 7 7 7 7 7 8 7 7 7 8 8 8 8
11 11 12 12 12 12 11 11 9 8 8 7 7 7 7 7 9 10 9 5 4 4 4 4 4 4 5 5 4 5 6 5 5 7 8 8 8 9 7 5 5 6 8
12 12 11 12 12 12 11 10 8 8 7 7 6 6 6 6 8 10 9 4 4 3 3 3 4 4 4 5 5 5 5 5 5 5 6 7 7 6 7 6 5 6 7
11 11 11 11 11 11 10 9 9 8 8 7 6 5 5 5 8 9 9 4 4 4 3 3 3 4 5 5 5 4 5 4 4 4 4 4 4 4 4 4 4 5 6
11 11 11 11 9 9 10 9 9 9 8 7 7 5 4 4 5 7 8 5 4 3 3 2 2 4 4 4 4 3 4 4 3 3 4 4 4 4 4 4 5 5 6
12 12 11 11 10 10 10 10 9 8 7 6 6 5 4 3 4 6 7 6 5 3 2 2 2 3 3 3 3 3 3 2 3 3 4 4 4 4 4 4 5 5 6
13 12 11 11 10 9 7 7 7 7 7 6 6 5 5 4 4 4 4 4 4 3 2 2 3 3 2 1 2 2 2 2 3 4 4 4 4 3 4 4 4 4 5
13 12 11 10 10 9 7 5 6 5 6 7 6 6 6 5 5 6 5 4 3 3 3 2 2 2 2 1 1 1 2 2 3 3 3 4 4 4 4 4 4 4 5
13 12 9 9 8 8 8 7 7 6 7 6 6 6 4 5 8 7 6 5 5 6 3 2 2 2 2 2 2 2 2 2 3 3 3 3 4 4 4 4 4 4 5
13 12 9 9 9 9 8 8 8 7 8 8 8 7 6 8 8 8 7 7 6 6 3 3 3 3 2 2 2 2 3 3 2 3 3 3 4 4 4 4 4 4 5
12 11 10 9 9 8 8 7 7 8 7 5 5 7 7 8 8 8 8 6 4 3 2 3 3 3 2 3 2 3 3 2 2 3 3 3 3 4 4 4 4 5 5
11 9 9 8 8 7 7 7 7 7 6 6 5 5 6 7 7 7 6 3 4 3 3 3 3 3 3 3 2 3 3 3 3 3 3 3 3 3 4 4 4 6 5
9 12 10 9 8 8 7 7 7 6 6 6 5 5 5 5 4 5 4 3 3 3 3 3 3 3 3 3 3 3 3 3 3 3 3 3 3 3 4 4 4 4 4
9 10 12 9 8 7 7 7 6 6 6 5 4 5 7 4 4 4 4 3 3 3 3 3 3 3 3 3 3 3 4 4 3 3 3 3 3 3 3 3 4 4 4
9 8 8 8 7 7 7 6 6 6 6 6 5 5 6 4 3 3 3 3 3 3 3 3 3 3 3 3 3 3 4 4 4 4 4 3 3 3 3 3 3 3 3
9 9 8 7 7 9 7 6 6 5 5 5 5 4 4 3 3 3 3 3 3 3 3 3 3 3 3 3 3 4 4 4 4 4 4 3 3 3 3 3 4 4 3
9 9 9 8 7 6 6 6 5 5 5 5 4 4 3 3 3 3 3 3 3 3 3 3 3 4 4 4 3 4 4 4 4 4 5 4 4 3 3 3 4 4 3
8 8 8 7 7 6 6 6 5 5 4 4 3 3 3 3 3 3 3 3 3 3 4 4 3 4 5 6 5 4 5 7 6 4 4 4 4 4 4 4 3 3 2
8 7 7 6 6 6 6 5 5 4 4 3 3 3 3 3 3 3 3 3 3 3 3 3 4 5 5 5 6 7 8 8 8 7 5 4 4 4 4 3 3 3 2
Wind_Direction
192 193 195 197 199 201 202 203 203 202 198 197 198 199 200 200 200 200 203 199 205 207 205 212 217 214 212 213 216 225 233 240 260 273 270 273 273 272 273 275 280 282 281
188 190 193 194 194 197 199 200 199 199 197 197 195 196 199 199 199 201 202 201 205 208 208 212 217 212 220 218 218 224 233 238 254 272 275 275 274 278 282 284 285 282 282
183 186 188 191 192 194 196 195 194 194 193 191 192 194 197 198 198 201 201 200 205 210 209 211 214 210 220 220 222 228 234 241 250 265 276 282 281 282 285 284 282 282 284
180 183 187 189 190 190 190 190 189 188 187 187 190 193 194 193 194 195 198 200 205 210 210 211 212 212 220 224 226 233 237 242 250 260 271 279 280 286 285 285 288 288 290
178 181 185 183 182 183 184 184 182 182 183 182 184 187 188 188 190 189 191 195 200 206 210 214 219 221 226 226 226 230 231 240 248 257 267 276 278 283 282 288 289 296 294
177 179 177 176 176 177 177 176 174 175 176 177 183 184 186 186 180 182 185 190 197 203 210 214 217 218 225 230 234 236 233 239 246 255 266 270 278 283 288 286 290 295 296
175 174 173 173 173 173 169 169 172 175 174 177 180 182 186 183 174 179 182 190 196 203 207 207 209 218 220 231 237 239 240 244 249 258 265 270 282 287 290 289 288 290 291
171 172 171 170 170 167 168 171 172 172 173 175 177 179 179 175 172 177 178 192 197 201 203 205 210 215 215 225 236 242 247 247 251 258 268 277 285 293 289 289 291 291 290
174 173 171 169 167 167 169 170 168 166 167 167 169 173 174 168 167 170 171 183 190 196 195 202 207 217 215 218 229 243 255 261 258 260 272 281 291 293 295 295 296 295 295
177 172 168 167 167 167 167 164 160 159 158 155 159 167 168 164 161 166 173 175 184 185 186 198 207 221 214 215 232 243 254 264 270 271 270 273 280 282 280 279 284 288 296
165 161 161 163 163 161 157 156 154 150 149 151 150 154 158 156 158 165 172 178 181 183 190 200 205 210 217 224 243 253 266 282 275 275 281 284 285 283 283 284 284 280 284
156 156 156 157 152 152 151 151 152 152 151 151 150 147 147 148 154 166 174 179 177 186 196 202 200 201 216 225 239 268 275 278 278 278 280 283 286 288 290 290 289 283 278
153 153 151 149 150 153 152 152 152 156 155 156 157 156 150 147 149 159 170 173 174 182 177 177 182 187 208 219 238 258 261 266 275 276 281 288 293 298 297 295 293 288 284
153 151 150 148 147 148 147 152 155 159 159 159 161 160 154 156 157 161 167 166 163 169 158 156 167 169 197 234 235 236 254 269 276 279 289 295 300 296 290 296 299 302 299
150 148 148 147 145 143 140 142 152 156 165 164 165 163 164 172 173 170 168 173 175 166 151 153 174 188 212 224 240 255 266 270 274 284 288 294 296 297 298 302 298 297 295
149 150 150 148 145 142 137 118 87 111 118 124 134 147 151 150 154 164 164 156 153 155 160 182 198 211 229 239 248 261 268 275 281 285 285 288 291 294 296 296 294 294 296
153 151 149 150 149 147 147 144 135 110 105 115 126 132 137 146 154 158 154 149 155 163 181 198 211 222 234 240 248 258 266 274 280 277 280 286 290 291 292 293 294 297 298
149 148 148 148 148 149 150 149 147 147 145 132 125 132 138 146 152 153 150 147 165 180 202 209 216 222 231 238 246 256 264 268 267 271 276 280 283 286 287 290 292 298 301
146 147 144 141 141 142 141 141 142 144 143 141 139 140 144 146 149 154 159 177 185 196 205 215 221 225 230 237 243 250 256 259 265 269 270 275 276 279 282 287 291 297 295
140 140 139 139 139 140 142 143 145 147 148 153 159 156 154 157 164 170 182 188 193 201 208 217 223 230 233 236 239 244 251 257 257 258 266 269 271 273 276 281 287 292 293
136 138 136 134 139 143 145 147 148 150 154 157 159 163 170 176 181 186 191 196 202 207 211 217 222 225 229 233 239 243 249 256 258 260 263 264 266 269 273 277 282 284 292
137 140 141 138 138 141 142 144 147 151 156 157 156 161 176 186 189 193 199 204 209 214 216 221 227 230 231 234 239 245 249 254 255 254 258 260 261 265 268 272 279 286 291
134 134 132 132 134 139 139 142 148 154 158 160 161 167 179 188 192 199 206 209 209 213 215 221 231 236 236 238 242 245 249 253 254 255 257 258 258 261 265 268 271 280 290
132 134 134 135 138 143 145 147 152 156 160 163 169 177 184 190 197 204 211 213 215 217 218 223 231 235 241 248 248 247 251 259 259 247 246 250 253 258 260 261 265 273 281
129 132 135 139 142 144 145 148 152 157 160 166 173 179 187 195 203 206 209 213 219 223 227 231 232 234 238 243 250 253 258 258 256 250 235 237 242 246 251 256 259 265 270
126 129 131 134 138 143 147 151 154 159 164 169 177 185 193 202 208 210 210 213 219 225 231 234 236 242 247 248 249 252 256 256 251 247 240 231 232 236 238 243 244 247 246